• In Deutschland
  • Länderverzeichnis
  • Für 7 Tage
  • Wassertemperatur
  • Satellitenkarten
  • Wetterkarte
  • Widgets
  • user-avatar
    Anmelden

    Stündliche Wetter Schwedt (Oder)

    Heute, 11 Dezember, Montag

    Zeit Temperatur Niederschläge Wind Luftdruck Luftfeuchtigkeit
    00:00 -1°C° 0,5 mm 5 m/S 737 mmHg 89%
    01:00 -1°C° 0 mm 5 m/S 736 mmHg 89%
    02:00 0°C° 0,2 mm 5 m/S 736 mmHg 89%
    03:00 +1°C° 0,2 mm 5 m/S 736 mmHg 88%
    04:00 +2°C° 0,2 mm 5 m/S 736 mmHg 88%
    05:00 +2°C° 0 mm 5 m/S 736 mmHg 88%
    06:00 +2°C° 0 mm 5 m/S 737 mmHg 88%
    07:00 +2°C° 0 mm 3 m/S 737 mmHg 91%
    08:00 +2°C° 0 mm 3 m/S 738 mmHg 90%
    09:00 +1°C° 0 mm 3 m/S 739 mmHg 89%
    10:00 +1°C° 0 mm 3 m/S 740 mmHg 88%
    11:00 +1°C° 0 mm 3 m/S 740 mmHg 87%
    12:00 +3°C° 0 mm 2 m/S 740 mmHg 86%
    13:00 +3°C° 0 mm 1 m/S 740 mmHg 86%
    14:00 +2°C° 0,2 mm 2 m/S 740 mmHg 88%
    15:00 +2°C° 0,2 mm 2 m/S 740 mmHg 89%
    16:00 +1°C° 0,2 mm 3 m/S 740 mmHg 91%
    17:00 +2°C° 0,3 mm 3 m/S 740 mmHg 92%
    18:00 +2°C° 0,3 mm 3 m/S 739 mmHg 93%
    19:00 +3°C° 0,3 mm 4 m/S 739 mmHg 94%
    20:00 +3°C° 0,7 mm 3 m/S 739 mmHg 94%
    21:00 +3°C° 0,7 mm 3 m/S 738 mmHg 95%
    22:00 +3°C° 0,7 mm 3 m/S 738 mmHg 95%
    23:00 +3°C° 0,4 mm 3 m/S 738 mmHg 96%

    Morgen, 12 Dezember, Dienstag

    Zeit Temperatur Niederschläge Wind Luftdruck Luftfeuchtigkeit
    00:00 +3°C° 0,4 mm 3 m/S 739 mmHg 96%
    01:00 +4°C° 0,4 mm 3 m/S 739 mmHg 96%
    02:00 +4°C° 0,3 mm 3 m/S 739 mmHg 95%
    03:00 +4°C° 0,3 mm 4 m/S 740 mmHg 94%
    04:00 +4°C° 0,3 mm 4 m/S 740 mmHg 92%
    05:00 +5°C° 0 mm 5 m/S 740 mmHg 88%
    06:00 +4°C° 0 mm 6 m/S 740 mmHg 84%
    07:00 +4°C° 0 mm 6 m/S 741 mmHg 80%
    08:00 +4°C° 0 mm 7 m/S 741 mmHg 79%
    09:00 +4°C° 0 mm 7 m/S 742 mmHg 78%
    10:00 +2°C° 0 mm 8 m/S 743 mmHg 78%
    11:00 +2°C° 0 mm 8 m/S 744 mmHg 78%
    12:00 +2°C° 0 mm 9 m/S 745 mmHg 78%
    13:00 +2°C° 0 mm 9 m/S 747 mmHg 78%
    14:00 +1°C° 0,2 mm 9 m/S 748 mmHg 77%
    15:00 +1°C° 0,2 mm 8 m/S 749 mmHg 77%
    16:00 +1°C° 0,2 mm 8 m/S 750 mmHg 76%
    17:00 +1°C° 0,3 mm 8 m/S 751 mmHg 78%
    18:00 0°C° 0,3 mm 8 m/S 752 mmHg 80%
    19:00 0°C° 0,3 mm 7 m/S 754 mmHg 82%
    20:00 0°C° 0,2 mm 7 m/S 755 mmHg 82%
    21:00 -1°C° 0,2 mm 6 m/S 756 mmHg 82%
    22:00 -1°C° 0,2 mm 6 m/S 757 mmHg 82%
    23:00 0°C° 0 mm 5 m/S 758 mmHg 84%

    übermorgen, 13 Dezember, Mittwoch

    Zeit Temperatur Niederschläge Wind Luftdruck Luftfeuchtigkeit
    00:00 -1°C° 0 mm 5 m/S 759 mmHg 87%
    01:00 -1°C° 0 mm 5 m/S 759 mmHg 90%
    02:00 -1°C° 0 mm 5 m/S 759 mmHg 90%
    03:00 -1°C° 0 mm 5 m/S 760 mmHg 90%
    04:00 -2°C° 0 mm 5 m/S 760 mmHg 90%
    05:00 -2°C° 0 mm 5 m/S 760 mmHg 90%
    06:00 -2°C° 0 mm 4 m/S 760 mmHg 90%
    07:00 -2°C° 0 mm 4 m/S 760 mmHg 89%
    08:00 -2°C° 0 mm 5 m/S 760 mmHg 87%
    09:00 -1°C° 0 mm 5 m/S 759 mmHg 85%
    10:00 -2°C° 0 mm 6 m/S 759 mmHg 82%
    11:00 -1°C° 0 mm 6 m/S 758 mmHg 79%
    12:00 -1°C° 0 mm 6 m/S 757 mmHg 76%
    13:00 +1°C° 0 mm 6 m/S 757 mmHg 73%
    14:00 +1°C° 0 mm 6 m/S 756 mmHg 74%
    15:00 -1°C° 0 mm 6 m/S 755 mmHg 75%
    16:00 -1°C° 0 mm 6 m/S 754 mmHg 76%
    17:00 -1°C° 0,1 mm 7 m/S 753 mmHg 75%
    18:00 0°C° 0,1 mm 7 m/S 752 mmHg 74%
    19:00 0°C° 0,1 mm 8 m/S 751 mmHg 72%
    20:00 0°C° 0,6 mm 8 m/S 750 mmHg 76%
    21:00 0°C° 0,6 mm 8 m/S 749 mmHg 79%
    22:00 0°C° 0,6 mm 8 m/S 748 mmHg 82%
    23:00 0°C° 0,1 mm 7 m/S 747 mmHg 82%

    14 Dezember, Donnerstag

    Zeit Temperatur Niederschläge Wind Luftdruck Luftfeuchtigkeit
    00:00 0°C° 0,1 mm 7 m/S 746 mmHg 82%
    01:00 +2°C° 0,1 mm 7 m/S 745 mmHg 82%
    02:00 +2°C° 0,5 mm 7 m/S 744 mmHg 83%
    03:00 +2°C° 0,5 mm 8 m/S 743 mmHg 84%
    04:00 +2°C° 0,5 mm 8 m/S 743 mmHg 84%
    05:00 +3°C° 0,2 mm 7 m/S 743 mmHg 85%
    06:00 +2°C° 0,2 mm 6 m/S 743 mmHg 85%
    07:00 +1°C° 0,2 mm 5 m/S 743 mmHg 85%
    08:00 +1°C° 0,5 mm 6 m/S 744 mmHg 83%
    09:00 0°C° 0,5 mm 7 m/S 744 mmHg 81%
    10:00 0°C° 0,5 mm 7 m/S 745 mmHg 79%
    11:00 +1°C° 0,1 mm 8 m/S 745 mmHg 75%
    12:00 +1°C° 0,1 mm 8 m/S 745 mmHg 72%
    13:00 +1°C° 0,1 mm 8 m/S 746 mmHg 69%
    14:00 0°C° 0 mm 7 m/S 746 mmHg 70%
    15:00 +1°C° 0 mm 6 m/S 746 mmHg 71%
    16:00 0°C° 0 mm 5 m/S 746 mmHg 73%
    17:00 0°C° 0 mm 5 m/S 746 mmHg 74%
    18:00 0°C° 0 mm 5 m/S 745 mmHg 75%
    19:00 -1°C° 0 mm 5 m/S 745 mmHg 76%
    20:00 -1°C° 0 mm 4 m/S 745 mmHg 78%
    21:00 -1°C° 0 mm 4 m/S 744 mmHg 80%
    22:00 -1°C° 0 mm 4 m/S 744 mmHg 82%
    23:00 0°C° 0,2 mm 3 m/S 743 mmHg 84%

    15 Dezember, Freitag

    Zeit Temperatur Niederschläge Wind Luftdruck Luftfeuchtigkeit
    00:00 0°C° 0,2 mm 3 m/S 742 mmHg 86%
    01:00 +1°C° 0,2 mm 2 m/S 742 mmHg 88%
    02:00 +1°C° 0,6 mm 2 m/S 742 mmHg 88%
    03:00 +1°C° 0,6 mm 2 m/S 742 mmHg 89%
    04:00 +1°C° 0,6 mm 2 m/S 742 mmHg 90%
    05:00 0°C° 0,3 mm 3 m/S 742 mmHg 90%
    06:00 0°C° 0,3 mm 3 m/S 743 mmHg 90%
    07:00 -1°C° 0,3 mm 4 m/S 743 mmHg 90%
    08:00 -1°C° 0 mm 4 m/S 744 mmHg 90%
    09:00 -1°C° 0 mm 5 m/S 745 mmHg 89%
    10:00 -1°C° 0 mm 5 m/S 746 mmHg 89%
    11:00 -1°C° 0 mm 5 m/S 746 mmHg 88%
    12:00 0°C° 0 mm 4 m/S 746 mmHg 87%
    13:00 0°C° 0 mm 4 m/S 747 mmHg 86%
    14:00 0°C° 0 mm 4 m/S 747 mmHg 88%
    15:00 0°C° 0 mm 3 m/S 747 mmHg 89%
    16:00 -1°C° 0 mm 3 m/S 747 mmHg 91%
    17:00 -1°C° 0 mm 3 m/S 748 mmHg 91%
    18:00 -1°C° 0 mm 3 m/S 748 mmHg 92%
    19:00 -1°C° 0 mm 3 m/S 748 mmHg 92%
    20:00 -1°C° 0 mm 3 m/S 748 mmHg 93%
    21:00 -1°C° 0 mm 2 m/S 749 mmHg 93%
    22:00 -1°C° 0 mm 2 m/S 749 mmHg 93%
    23:00 -1°C° 0 mm 2 m/S 749 mmHg 93%

    16 Dezember, Samstag

    Zeit Temperatur Niederschläge Wind Luftdruck Luftfeuchtigkeit
    00:00 -1°C° 0 mm 2 m/S 749 mmHg 94%
    01:00 -2°C° 0 mm 2 m/S 749 mmHg 94%
    02:00 -2°C° 0 mm 2 m/S 749 mmHg 95%
    03:00 -2°C° 0 mm 2 m/S 749 mmHg 95%
    04:00 -2°C° 0 mm 2 m/S 749 mmHg 95%
    05:00 -2°C° 0 mm 2 m/S 750 mmHg 95%
    06:00 -2°C° 0 mm 2 m/S 750 mmHg 96%
    07:00 -2°C° 0 mm 2 m/S 750 mmHg 96%
    08:00 -1°C° 0 mm 2 m/S 750 mmHg 95%
    09:00 -1°C° 0 mm 2 m/S 751 mmHg 95%
    10:00 -1°C° 0 mm 3 m/S 751 mmHg 94%
    11:00 0°C° 0 mm 3 m/S 751 mmHg 93%
    12:00 0°C° 0 mm 3 m/S 752 mmHg 93%
    13:00 +1°C° 0 mm 3 m/S 752 mmHg 92%
    14:00 0°C° 0 mm 3 m/S 752 mmHg 92%
    15:00 0°C° 0 mm 3 m/S 752 mmHg 93%
    16:00 0°C° 0 mm 3 m/S 753 mmHg 93%
    17:00 -1°C° 0 mm 4 m/S 753 mmHg 93%
    18:00 -1°C° 0 mm 4 m/S 753 mmHg 93%
    19:00 -1°C° 0 mm 4 m/S 754 mmHg 93%
    20:00 -1°C° 0 mm 4 m/S 754 mmHg 93%
    21:00 -1°C° 0 mm 4 m/S 754 mmHg 93%
    22:00 -1°C° 0 mm 4 m/S 755 mmHg 93%
    23:00 -2°C° 0 mm 4 m/S 755 mmHg 93%
    Mehr zeigen